Skip Page Navigation
NASA JPL Caltech
NASA Logo - Jet Propulsion Laboratory + View the NASA Portal
+ Center for Near-Earth Object Studies
JPL Home Earth Solar System Stars & Galaxies Technology
JPL Solar System Dynamics
BODIES ORBITS EPHEMERIDES TOOLS PHYSICAL DATA DISCOVERY FAQ SITE MAP
IMPORTANT: The SSD Announcement email list is now available. Major changes are coming in the near future, including possible hostname and/or URL changes. To be notified of such changes, subscribe to this email list.

Please visit this page for more details.


JPL Small-Body Database Browser
Search: [ help ]  
193028 (2000 EX70)
Classification: Main-belt Asteroid          SPK-ID: 2193028
Ephemeris | Orbit Diagram | Orbital Elements | Mission Design | Physical Parameters | Discovery Circumstances | Close-Approach Data ]

[ show orbit diagram ]
Orbital Elements at Epoch 2458600.5 (2019-Apr-27.0) TDB
Reference: JPL 14 (heliocentric ecliptic J2000)
 Element Value Uncertainty (1-sigma)   Units 
e .1879521816075037 1.0501e-07  
a 3.060879307900652 4.0469e-08 au
q 2.485580364343459 3.4154e-07 au
i 11.52975384296926 6.6819e-06 deg
node 19.1158249400674 3.1621e-05 deg
peri 166.9646767417326 3.6141e-05 deg
M 180.0317745203193 1.8506e-05 deg
tp 2459578.324847146409
(2021-Dec-29.82484715)
0.00011309 TDB
period 1955.994976526851
5.36
3.8792e-05
1.062e-07
d
yr
n .18404955243762 3.6501e-09 deg/d
Q 3.636178251457847 4.8076e-08 au
  Orbit Determination Parameters
   # obs. used (total)      418  
   data-arc span      6770 days (18.54 yr)  
   first obs. used      2000-03-04  
   last obs. used      2018-09-16  
   planetary ephem.      DE431  
   SB-pert. ephem.      SB431-N16  
   condition code      0  
   norm. resid. RMS      .55849  
   source      ORB  
   producer      Otto Matic  
   solution date      2018-Oct-04 07:57:40  

Additional Information
 Earth MOID = 1.48851 au 
 Jupiter MOID = 1.32239 au 
 T_jup = 3.176 
[ show covariance matrix ]

Ephemeris | Orbit Diagram | Orbital Elements | Mission Design | Physical Parameters | Discovery Circumstances | Close-Approach Data ]

Physical Parameter Table
Parameter Symbol Value Units Sigma Reference Notes
absolute magnitude H 14.7   n/a MPO454338  
diameter diameter 3.943 km 0.371 urn:nasa:pds:neowise_diameters_albedos::2.0[mainbelt] (http://adsabs.harvard.edu/abs/2011ApJ...741...68M)  
geometric albedo albedo 0.164   0.049 urn:nasa:pds:neowise_diameters_albedos::2.0[mainbelt] (http://adsabs.harvard.edu/abs/2011ApJ...741...68M)  

193028 (2000 EX70)          Discovered 2000-Mar-10 by CSS at Catalina
Reference: 20081113/Numbers.arcLast Updated: 2008-11-17

[ show close-approach data ]
Alternate Designations
 2000 EX70 = 2006 JM26 
Ephemeris | Orbit Diagram | Orbital Elements | Mission Design | Physical Parameters | Discovery Circumstances | Close-Approach Data ]
ABOUT SSD CREDITS/AWARDS PRIVACY/COPYRIGHT GLOSSARY LINKS
FirstGov 2019-Oct-20 20:40 UT
(server date/time)  
NASA Home Page
Site Manager:   Ryan S. Park
Webmaster  Alan B. Chamberlin